Über Flock 4g-36
Group: 3 satellites
Beschreibung wird geladen...
Live-Position
3D-Globus wird geladen...
Nächste Überflüge
Höhenverlauf
Altitude vs Time
uPlot chart will show altitude changes over time
Zweizeiliger Elementsatz
1 62675U 25009BU 25341.17735539 .00016249 00000-0 66051-3 0 9990
2 62675 97.4202 59.2995 0003796 279.8983 80.1826 15.24622971 49593
Epoch: 7. Dez. 2025 •
Age: 21 hours
Aktueller Status
Höhe 502.4 km
Geschwindigkeit 7.62 km/s
Subsatellitenpunkt 52.92°N,
41.26°W
Startdatum 14. Jan. 2025
Alter 0.8 years
Typ earth observation
Technische Details
Klassifizierung Payload
Masse 5.70 kg
Trockenmasse 5.70 kg
Gesamtmasse 5.70 kg
Länge 0.30 m
Durchmesser 0.10 m
Spannweite 0.30 m
Form Box+2 pan
Hersteller PLAN
Bus-Typ Cubesat 3U
Phasenstatus In Orbit
Besitzer/Staat PLAN/US
Große Konstellationen
Loading constellations...